Probability
0 0 0 0 0 0 0 0 0 0 0 0 0 1 4 12 26 38 41 35 22 8 2 1 1 0 1 1 2 4 6 8 10 11 9 6 3 2 2 2 2 2 2 1
0 0 0 0 0 0 0 0 0 0 0 0 0 0 3 10 19 27 30 25 16 6 1 0 0 0 1 1 1 1 2 3 5 6 5 3 1 1 1 1 1 1 1 0
0 0 0 0 0 0 0 0 0 0 0 0 0 0 2 5 9 15 16 13 7 2 0 0 0 0 0 0 0 0 0 0 1 1 1 1 0 0 0 0 0 0 0 0
0 0 0 0 0 0 0 0 0 0 0 0 0 0 1 2 4 6 7 4 1 0 0 0 0 0 0 0 0 0 0 0 0 0 1 1 0 0 0 0 0 0 0 0
0 0 0 0 0 0 0 0 0 0 0 0 0 0 0 1 1 2 1 0 0 0 0 0 0 0 0 0 0 0 0 0 0 0 1 1 0 0 0 0 0 0 0 0
0 0 0 0 0 0 0 0 0 0 0 0 0 0 1 1 1 1 0 0 0 0 0 0 0 0 0 0 0 0 0 0 0 0 0 0 0 0 0 0 0 0 0 0
0 0 0 0 0 0 0 0 0 0 0 0 0 0 1 0 0 0 0 0 0 0 0 0 0 0 0 0 0 0 0 0 0 0 0 0 0 0 0 0 0 0 0 0
0 0 0 0 0 0 0 0 0 0 0 0 0 0 1 0 0 0 0 0 0 0 0 0 0 0 0 0 0 0 0 0 0 0 0 0 0 0 0 0 0 0 0 0
0 0 0 0 0 0 0 0 0 0 0 0 0 0 0 0 0 0 0 0 0 0 0 0 0 0 0 0 0 0 0 0 0 0 0 0 0 0 0 0 0 0 0 0
0 0 0 0 0 0 0 0 0 0 0 0 0 0 0 0 0 0 0 0 0 0 0 0 0 0 0 0 0 0 0 0 0 0 0 0 0 0 0 0 0 0 0 0
0 0 0 0 0 0 0 0 0 0 0 0 0 0 0 0 0 0 0 0 0 0 0 0 0 0 0 0 0 0 0 0 0 0 0 0 0 0 0 0 0 0 0 0
0 0 0 0 0 0 0 0 0 0 0 0 0 0 0 0 0 0 0 0 0 0 0 0 0 0 0 0 0 0 0 0 0 0 0 0 0 0 0 0 0 0 0 0
0 0 0 0 0 0 0 0 0 0 0 0 0 0 0 0 0 0 0 0 0 0 0 0 0 0 0 0 0 0 0 0 0 0 0 0 0 0 0 0 0 0 0 0
0 0 0 0 0 0 0 0 0 0 0 0 0 0 0 0 0 0 0 0 0 0 0 0 0 0 0 0 0 0 0 0 0 0 0 0 0 0 0 0 0 0 0 0
0 0 0 0 0 0 0 0 0 0 0 0 0 0 0 0 0 0 0 0 0 0 0 0 0 0 0 0 0 0 0 0 0 0 0 0 0 0 0 0 0 0 0 0
0 0 0 0 0 0 0 0 0 0 0 0 0 0 0 0 0 0 0 0 0 0 0 0 0 0 0 0 0 0 0 0 0 0 0 0 0 0 0 0 0 0 0 0
0 0 0 0 0 0 0 0 0 0 0 0 0 0 0 0 0 0 0 0 0 0 0 0 0 0 0 0 0 0 0 0 0 0 0 0 0 0 0 0 0 0 0 0
0 0 0 0 0 0 0 0 0 0 0 0 0 0 0 0 0 0 0 0 0 0 0 0 0 0 0 0 0 0 0 0 0 0 0 0 0 0 0 0 0 0 0 0
0 0 0 0 0 0 0 0 0 0 0 0 0 0 0 0 0 0 0 0 0 0 0 0 0 0 0 0 0 0 0 0 0 0 0 0 0 0 0 0 0 0 0 0
0 0 0 0 0 0 0 0 0 0 0 0 0 0 0 0 0 0 0 0 0 0 0 0 0 0 0 0 0 0 0 0 0 0 0 0 0 0 0 0 0 0 0 0
0 0 0 0 0 0 0 0 0 0 0 0 0 0 0 0 0 0 0 0 0 0 0 0 0 0 0 0 0 0 0 0 0 0 0 0 0 0 0 0 0 0 0 0
0 0 0 0 0 0 0 0 0 0 0 0 0 0 0 0 0 0 0 0 0 0 0 0 0 0 0 0 0 0 0 0 0 0 0 0 0 0 0 0 0 0 0 0
0 0 0 0 0 0 0 0 0 0 0 0 0 0 0 0 0 0 0 0 0 0 0 0 0 0 0 0 0 0 0 0 0 0 0 0 0 0 0 0 0 0 0 0
0 0 0 0 0 0 0 0 0 0 0 0 0 0 0 0 0 0 0 0 0 0 0 0 0 0 0 0 0 0 0 0 0 0 0 0 0 0 0 0 0 0 0 0
0 0 0 0 0 0 0 0 0 0 0 0 0 0 0 0 0 0 0 0 0 0 0 0 0 0 0 0 0 0 0 0 0 0 0 0 0 0 0 0 0 0 0 0
0 0 0 0 0 0 0 0 0 0 0 0 0 0 0 0 0 0 0 0 0 0 0 0 0 0 0 0 0 0 0 0 0 0 0 0 0 0 0 0 0 0 0 0
Wind_Speed
2 2 6 11 7 7 6 3 4 6 6 10 15 18 20 20 22 20 16 13 11 9 6 6 6 6 7 10 10 7 4 2 3 3 4 3 2 2 3 4 6 6 6 6
1 5 11 8 7 7 5 3 4 6 7 8 15 19 18 21 22 19 17 15 13 10 9 8 8 9 10 10 8 5 4 3 3 3 4 3 2 2 2 3 4 6 7 6
3 3 8 9 10 7 5 3 3 3 5 7 7 10 14 15 17 18 17 14 12 12 11 11 13 12 12 12 10 8 7 6 6 4 3 2 2 2 2 1 2 4 6 7
4 6 9 11 9 4 4 5 3 3 4 4 4 3 5 8 14 15 13 12 10 9 8 9 11 11 11 10 9 8 8 8 9 8 7 6 4 3 3 2 2 3 4 6
4 5 6 7 5 4 5 4 3 3 1 2 4 6 1 3 8 9 8 7 7 5 6 8 8 8 7 7 6 5 6 7 8 8 9 8 6 4 4 4 4 3 3 4
4 4 4 5 6 4 1 6 8 7 6 3 3 4 1 1 1 2 3 4 3 1 3 4 5 5 4 4 4 4 5 6 6 6 6 7 7 6 6 6 6 4 3 3
7 7 5 2 5 7 6 8 6 7 6 2 1 5 2 3 3 2 2 1 1 1 2 3 3 2 1 1 2 3 4 4 5 5 5 5 5 5 5 5 5 5 4 3
3 6 6 4 2 3 1 8 5 2 4 2 2 2 2 3 3 2 3 3 2 1 1 1 2 2 2 2 2 1 1 1 2 3 3 3 4 3 3 4 4 4 4 4
4 6 6 4 4 1 1 1 5 5 0 2 0 2 2 4 5 4 3 2 2 2 2 3 4 5 5 5 5 4 3 2 2 2 2 3 3 3 4 5 4 4 4 5
6 4 5 5 5 6 3 2 6 5 2 2 1 2 4 7 7 5 3 2 3 3 4 5 6 7 7 7 6 6 5 5 6 5 5 4 5 5 4 4 5 5 5 5
2 1 6 6 4 4 5 4 4 2 4 3 2 4 4 6 5 3 2 2 3 4 6 7 7 7 6 6 5 5 6 6 7 7 7 6 7 6 5 5 6 6 5 5
2 5 3 4 4 2 4 3 2 2 2 2 1 4 2 3 2 0 2 4 6 7 8 7 7 6 4 4 5 6 7 8 9 9 8 8 8 7 7 7 7 6 6 6
3 6 5 9 10 7 7 6 4 5 4 3 2 5 3 2 2 3 5 7 8 8 8 6 5 5 5 5 6 8 8 10 10 9 9 9 9 8 9 9 8 7 7 7
6 5 4 3 5 1 5 7 7 6 4 2 0 2 6 5 6 6 7 9 9 7 5 6 6 6 7 7 8 8 9 10 10 10 10 10 11 11 10 10 9 9 8 8
7 4 3 2 6 10 9 9 9 8 4 1 2 2 3 5 5 7 8 10 9 6 8 9 8 8 8 9 9 9 9 10 10 10 10 11 12 11 10 9 10 9 9 10
5 4 5 5 9 11 11 10 7 5 4 2 2 1 4 6 5 7 9 11 8 9 11 11 11 11 11 11 11 10 10 11 10 10 10 11 10 10 10 10 10 9 9 9
3 4 4 3 2 3 6 5 5 3 4 3 2 4 7 7 9 9 10 9 10 12 14 14 12 12 12 12 12 12 12 11 10 11 11 10 10 10 10 10 8 8 8 8
4 3 3 2 6 3 3 1 4 3 4 3 1 5 6 8 9 8 9 9 12 14 14 13 12 12 12 11 11 12 12 11 11 11 11 10 10 10 9 8 8 7 6 6
4 5 4 3 2 1 0 4 3 2 3 3 4 7 9 8 7 6 8 10 12 14 14 12 12 13 12 12 13 13 13 13 12 12 11 10 9 9 8 8 8 7 6 6
7 7 6 3 1 3 2 5 5 2 2 3 6 7 9 9 9 7 9 11 11 11 9 9 10 10 11 12 12 13 14 14 14 14 12 11 9 8 8 8 7 6 6 7
5 6 5 2 1 2 3 5 5 4 7 7 5 7 7 6 8 11 13 11 9 9 10 10 10 11 12 13 13 13 14 14 15 14 13 11 10 9 8 7 6 6 6 6
4 3 1 2 2 5 3 4 3 5 6 5 5 6 7 8 10 10 10 10 10 10 10 11 11 13 13 13 14 15 16 15 15 15 14 13 11 11 10 7 6 6 6 6
4 7 6 6 6 5 1 3 4 4 3 4 5 7 7 8 8 9 9 10 10 11 12 11 13 16 15 13 13 16 16 15 15 14 14 12 12 10 9 8 8 7 6 6
2 3 4 2 2 4 3 1 1 1 2 4 5 6 7 7 9 9 9 10 11 11 12 13 16 17 17 15 14 14 15 14 13 13 12 10 9 9 8 7 6 6 6 6
5 4 3 1 1 1 2 2 2 2 3 5 6 6 7 7 7 8 8 10 11 12 12 13 15 16 17 16 15 14 14 13 13 12 10 9 8 7 6 6 5 6 5 5
1 5 6 5 6 4 4 3 2 3 5 6 6 7 7 6 7 8 9 9 11 14 14 15 16 16 17 16 16 14 13 12 11 10 8 6 5 5 5 4 4 5 6 8
Wind_Direction
323 96 249 253 222 226 277 310 331 316 337 55 67 60 47 44 50 50 51 53 56 59 58 59 55 52 62 62 52 48 17 6 304 270 264 268 249 217 171 179 176 172 166 159
335 249 249 267 304 316 317 334 331 323 355 59 80 71 59 51 53 49 43 33 28 31 36 45 54 53 52 60 55 29 354 319 270 247 251 243 233 226 191 185 184 180 171 166
192 286 331 337 326 318 317 312 310 323 8 31 88 63 51 51 54 52 46 37 28 27 29 36 48 48 49 45 37 36 25 13 6 345 306 320 14 15 19 264 220 207 183 172
5 326 340 332 310 302 297 289 314 343 27 345 59 96 51 47 48 46 42 36 27 20 28 38 45 45 46 44 38 30 27 27 23 16 22 31 28 6 330 299 275 255 209 183
301 299 323 313 294 325 276 298 352 360 51 37 30 99 51 23 42 41 41 43 36 19 31 43 44 42 41 39 41 36 31 31 28 29 31 31 26 3 341 343 345 317 277 236
266 257 237 256 295 293 317 33 31 41 55 26 337 106 20 353 117 83 59 55 57 48 55 54 50 45 36 27 26 26 30 27 23 28 31 32 21 6 2 357 349 336 318 298
333 324 306 287 322 335 47 62 23 1 6 300 360 93 172 185 177 145 146 171 209 157 99 75 63 57 48 31 27 31 36 21 13 21 24 24 13 357 350 339 337 338 333 327
351 315 313 332 293 250 338 116 133 222 244 278 11 106 179 202 219 208 196 200 200 189 159 152 180 206 224 218 200 175 90 20 3 10 3 2 359 346 327 324 320 321 316 305
192 268 293 309 324 111 56 108 172 156 304 87 168 106 214 225 236 234 219 194 186 197 203 213 223 224 224 221 215 205 196 216 244 254 268 284 303 310 309 312 313 311 314 319
171 240 295 322 23 23 114 120 56 59 47 352 299 222 217 210 225 225 214 202 216 222 230 238 240 235 227 216 208 200 200 212 227 233 238 241 248 258 270 288 296 299 305 315
127 101 323 360 20 354 13 29 68 94 134 132 308 281 234 204 203 196 221 246 259 267 266 264 264 260 248 228 213 213 219 226 237 239 239 243 247 247 251 261 270 275 282 292
41 97 346 314 311 38 54 33 89 100 360 79 121 286 285 176 182 213 317 318 312 304 297 298 303 308 300 268 246 242 241 239 243 243 241 243 247 246 246 250 257 261 269 275
75 79 29 348 346 11 40 21 46 104 87 64 64 308 352 32 9 350 340 328 316 312 313 317 318 311 295 274 259 253 249 246 248 246 242 246 249 247 246 247 251 253 257 264
94 82 131 202 268 360 65 48 45 71 75 55 51 314 3 3 354 344 333 319 313 317 322 318 305 291 278 268 261 257 253 248 246 243 239 240 242 242 242 244 245 248 249 254
78 54 352 10 84 89 78 63 61 70 76 105 293 131 354 331 320 310 308 310 314 315 313 305 294 282 274 269 264 259 256 252 247 242 238 237 238 236 235 236 240 243 245 248
69 58 31 47 102 92 70 50 43 45 37 20 63 102 306 304 310 314 315 317 312 306 306 303 296 289 283 277 273 269 265 260 252 244 239 236 229 225 223 227 230 234 238 243
61 68 46 335 290 68 32 26 47 34 36 68 44 301 305 316 318 309 309 309 302 305 306 303 297 289 286 284 281 278 274 269 258 250 244 234 226 221 218 218 217 222 231 238
117 89 96 10 26 37 235 73 70 97 95 60 350 300 303 301 296 288 294 299 302 303 303 301 299 297 296 294 296 294 291 285 276 266 257 247 235 227 219 212 213 220 224 230
117 117 83 68 13 204 301 9 354 296 191 52 355 329 319 306 303 286 280 292 295 299 304 308 311 314 317 319 320 318 312 306 297 289 277 263 247 235 223 216 216 218 223 233
49 78 86 54 360 258 271 317 311 339 277 341 348 323 315 333 331 300 301 303 303 308 314 319 322 321 321 320 321 318 313 309 304 301 295 285 268 248 234 222 220 220 221 232
29 40 61 45 313 274 298 323 35 56 278 297 306 309 314 310 280 290 308 314 318 319 318 319 319 319 318 317 315 310 305 301 298 295 292 289 281 267 251 235 226 229 233 235
126 107 99 89 5 275 317 45 72 244 257 286 297 299 297 290 289 299 310 317 322 320 319 321 321 320 317 315 313 309 305 301 297 293 287 282 278 272 270 250 241 236 233 233
149 173 176 177 207 220 137 148 207 224 272 290 292 296 299 305 306 315 318 321 321 320 321 322 322 321 319 317 313 309 307 306 304 299 292 285 280 272 264 253 249 244 230 227
245 148 112 115 164 173 158 158 330 344 312 302 302 305 315 316 318 323 323 324 324 326 324 326 326 323 322 321 316 310 309 310 307 303 298 289 282 277 268 257 247 240 227 220
191 132 119 166 196 188 329 335 345 6 346 333 323 318 324 328 325 324 324 324 325 327 325 325 324 321 320 320 317 315 314 315 313 309 303 296 287 280 273 264 251 239 225 209
188 150 155 211 219 194 250 280 43 23 344 328 329 329 330 332 326 327 323 322 324 327 326 325 323 321 320 320 318 317 317 316 315 312 309 303 297 291 280 277 279 254 239 231